Flag for Germany Weather past 2 weeks in Bernau bei Berlin, Brandenburg, Germany

Now
60 °F

Overcast.


Feels Like: 60 °F
Forecast: 54 / 66 °F
Wind: 1 mph from East

Location: Berlin-Tegel

Current Time: Oct 1, 2014 at 12:18:57 AM

Latest Report: Oct 1, 2014 at 12:00 AM


Visibility: 5 mi

Pressure: 30.28 "Hg

Humidity: 92%

Dew point: 58 °F

Location of Bernau bei BerlinLocation

Historic Weather in Bernau bei Berlin — Graph

°F

Bernau bei Berlin temperature yesterday

Maximum temperature yesterday: 67 °F (at 4:00 PM)
Minimum temperature yesterday: 60 °F (at 4:00 AM)
Average temperature yesterday: 63 °F

Past Weeks' High & Low Weather Summary

 TemperatureHumidityPressure
High77 °F (Sep 16, 4:00 PM)97% (Sep 21, 8:00 AM)30.38 "Hg (Sep 21, 8:00 AM)
Low44 °F (Sep 28, 6:00 AM)39% (Sep 18, 6:00 PM)29.78 "Hg (Sep 22, 11:00 AM)
Average60 °F76%30.05 "Hg
* Reported Sep 15 11:00 PM — Sep 30 11:00 PM, Bernau bei Berlin, Weather by CustomWeather, © 2014

Note: Actual official high and low records may vary slightly from our data, if they occured in-between our weather recording intervals... More about our weather records

Advertising

Bernau bei Berlin weather history for previous 24 hours

 ConditionsComfort  
Time TempWeatherWind HumidityBarometerVisibility
11:00 PM
Sep 30
61 °FOvercast.1 mph92%30.27 "Hg6 mi
10:00 PM61 °FPassing clouds.1 mph91%30.27 "Hg7 mi
9:00 PM62 °FOvercast.1 mph89%30.27 "Hg7 mi
8:00 PM62 °FOvercast.1 mph87%30.26 "Hg9 mi
7:00 PM65 °FOvercast.1 mph82%30.24 "Hg14 mi
6:00 PM66 °FOvercast.2 mph79%30.24 "Hg19 mi
5:00 PM65 °FPartly sunny.2 mph81%30.24 "Hg12 mi
4:00 PM67 °FLight rain. Overcast.5 mph76%30.23 "Hg9 mi
3:00 PM64 °FLow clouds.3 mph90%30.23 "Hg5 mi
2:00 PM64 °FLow clouds.3 mph89%30.23 "Hg5 mi
1:00 PM63 °FDrizzle. Low clouds.6 mph89%30.23 "Hg5 mi
12:00 PM64 °FLow clouds.6 mph88%30.22 "Hg5 mi
11:00 AM64 °FLight rain. Low clouds.3 mph90%30.21 "Hg4 mi
10:00 AM62 °FDrizzle. Low clouds.1 mph92%30.21 "Hg4 mi
9:00 AM62 °FLight rain. Low clouds.1 mph92%30.20 "Hg4 mi
8:00 AM61 °FLow clouds.1 mph93%30.20 "Hg3 mi
7:00 AM61 °FLight rain. Overcast.1 mph92%30.20 "Hg4 mi
6:00 AM61 °FLight rain. Overcast.2 mph92%30.20 "Hg11 mi
5:00 AM60 °FLight rain. Overcast.1 mph93%30.19 "Hg11 mi
4:00 AM60 °FLight rain. Overcast.1 mph92%30.19 "Hg12 mi
3:00 AM61 °FFog.1 mph90%30.19 "Hg16 mi
2:00 AM61 °FOvercast.1 mph88%30.20 "Hg19 mi
1:00 AM63 °FOvercast.1 mph85%30.20 "Hg19 mi
12:00 AM64 °FOvercast.1 mph80%30.19 "Hg19 mi
Weather by CustomWeather, © 2014

See weather overviewHow to use our weather pages